Location: Burla
(50.9568°N, 10.4983°E)
Time: 06:15:27
(UTC+00:00)

Meteor 2-5 Rocket - Pass Details

Date: 18 January 2026
Orbit: 833 x 910 km, 81.2° (Epoch: 17 February)

Event Time Altitude Azimuth Distance (km) Brightness Sun altitude
Rises 05:48:41 0° 346° (NNW) 3,504 6.6 -12.7°
Reaches altitude 10° 05:51:07 10° 345° (NNW) 2,570 5.9 -12.4°
Maximum altitude 05:56:59 79° 261° (W) 924 3.8 -11.5°
Drops below altitude 10° 06:02:54 10° 175° (S) 2,586 6.6 -10.6°
Sets 06:05:22 0° 174° (S) 3,526 7.3 -10.2°
